Manhattan, KS

2:59 PM CST on December 06, 2019 (GMT -0600)
Manhattan Regional

Weather History for KMHK - October, 2019

Change the Weather History Date:

Wednesday, October 9, 2019

  Actual Average Record
Temperature  
Mean Temperature 63 °F 58 °F  
Max Temperature 70 °F 71 °F 84 °F (2007)
Min Temperature 55 °F 45 °F 19 °F (2000)
Degree Days  
Heating Degree Days 2 8  
Month to date heating degree days 49 65  
Since 1 July heating degree days 50 135  
Cooling Degree Days 0 1  
Month to date cooling degree days 13 16  
Year to date cooling degree days 1608 1353  
Growing Degree Days 12 (Base 50)    
Moisture  
Dew Point 53 °F    
Average Humidity 74    
Maximum Humidity 87    
Minimum Humidity 60    
Precipitation  
Precipitation 0.64 in 0.06 in 0.64 in (2014)
Month to date precipitation 2.57 0.73  
Year to date precipitation 40.55 28.44  
Sea Level Pressure  
Sea Level Pressure 29.83 in    
Wind  
Wind Speed 10 mph (SSE)    
Max Wind Speed 25 mph    
Max Gust Speed 34 mph    
Visibility 9 miles    
Events Rain , Thunderstorm    
T = Trace of Precipitation, MM = Missing Value Source: NWS Daily Summary

Daily Weather History Graph

Daily Weather History Graph

Search for Another Location

Airport or City:

Astronomy

Oct. 09, 2019 Rise Set
Actual Time 7:30 AM CDT 6:57 PM CDT
Civil Twilight 7:03 AM CDT 7:23 PM CDT
Nautical Twilight 6:32 AM CDT 7:54 PM CDT
Astronomical Twilight 6:01 AM CDT 8:25 PM CDT
Moon 5:27 PM CDT (10/9) 3:20 AM CDT (10/9)
Length of Visible Light 12h 20m
Length of Day
11h 26m
Waxing Gibbous, 85% of the Moon is Illuminated
Oct 9
Waxing Gibbous
Oct 13
Full
Oct 21
Last Quarter
Oct 27
New
Nov 4
First Quarter

Hourly Weather History & Observations

Time (CDT) Temp. Dew Point Humidity Pressure Visibility Wind Dir Wind Speed Gust Speed Precip Events Conditions
12:52 AM 61.0 °F 46.9 °F 60% 29.90 in 10.0 mi South 10.4 mph - N/A   Clear
1:52 AM 61.0 °F 46.0 °F 58% 29.88 in 10.0 mi South 10.4 mph - N/A   Clear
2:52 AM 60.1 °F 46.0 °F 60% 29.88 in 10.0 mi South 4.6 mph - N/A   Clear
3:52 AM 59.0 °F 46.0 °F 62% 29.86 in 10.0 mi South 6.9 mph - N/A   Clear
4:52 AM 60.1 °F 46.9 °F 62% 29.85 in 10.0 mi South 6.9 mph - N/A   Mostly Cloudy
5:31 AM 57.0 °F 50.0 °F 77% 29.89 in 4.0 mi SSW 8.1 mph - 0.12 in Rain , Thunderstorm Heavy Thunderstorms and Rain
5:39 AM 57.0 °F 50.0 °F 77% 29.89 in 2.5 mi SSE 5.8 mph - 0.22 in Rain , Thunderstorm Light Thunderstorms and Rain
5:47 AM 55.4 °F 51.8 °F 88% 29.88 in 10.0 mi Calm Calm - 0.22 in Rain , Thunderstorm Light Thunderstorms and Rain
5:52 AM 57.0 °F 51.1 °F 81% 29.87 in 10.0 mi ESE 3.5 mph - 0.23 in Rain , Thunderstorm Light Thunderstorms and Rain
6:25 AM 57.0 °F 50.0 °F 77% 29.88 in 7.0 mi South 5.8 mph - 0.02 in Thunderstorm Overcast
6:37 AM 57.0 °F 51.1 °F 81% 29.88 in 5.0 mi South 8.1 mph - 0.14 in Rain , Thunderstorm Heavy Thunderstorms and Rain
6:52 AM 55.0 °F 52.0 °F 89% 29.87 in 7.0 mi South 4.6 mph - 0.22 in Rain , Thunderstorm Thunderstorms and Rain
7:26 AM 57.0 °F 53.1 °F 87% 29.87 in 10.0 mi South 11.5 mph - 0.03 in Rain Light Rain
7:52 AM 57.0 °F 54.0 °F 89% 29.87 in 10.0 mi South 6.9 mph 19.6 mph 0.03 in   Overcast
8:52 AM 57.9 °F 54.0 °F 87% 29.89 in 5.0 mi South 10.4 mph - 0.03 in Rain Rain
9:52 AM 59.0 °F 54.0 °F 83% 29.86 in 10.0 mi SSE 10.4 mph - 0.01 in   Scattered Clouds
10:52 AM 59.0 °F 55.0 °F 87% 29.87 in 10.0 mi South 15.0 mph 24.2 mph 0.08 in   Overcast
11:52 AM 60.1 °F 55.0 °F 83% 29.86 in 10.0 mi SSE 12.7 mph 21.9 mph N/A   Overcast
12:21 PM 61.0 °F 55.0 °F 81% 29.86 in 6.0 mi North - - 0.04 in Rain Rain
12:45 PM 64.9 °F 57.0 °F 75% 29.84 in 10.0 mi Variable 5.8 mph - 0.04 in   Mostly Cloudy
12:52 PM 66.0 °F 57.0 °F 73% 29.82 in 10.0 mi Variable 5.8 mph - 0.04 in   Scattered Clouds
1:52 PM 66.0 °F 55.9 °F 70% 29.78 in 10.0 mi SSE 17.3 mph 29.9 mph N/A   Clear
2:52 PM 66.9 °F 55.0 °F 66% 29.75 in 10.0 mi South 19.6 mph 31.1 mph N/A   Mostly Cloudy
3:52 PM 70.0 °F 57.0 °F 63% 29.73 in 10.0 mi South 18.4 mph 27.6 mph N/A   Clear
4:45 PM 66.9 °F 55.9 °F 68% 29.74 in 10.0 mi SSE 17.3 mph 28.8 mph N/A   Mostly Cloudy
4:52 PM 66.9 °F 55.9 °F 68% 29.73 in 10.0 mi SSE 15.0 mph 28.8 mph N/A   Mostly Cloudy
5:52 PM 66.0 °F 57.0 °F 73% 29.74 in 10.0 mi SSE 12.7 mph 21.9 mph N/A   Overcast
6:36 PM 66.0 °F 57.9 °F 75% 29.74 in 10.0 mi SE 10.4 mph - N/A   Overcast
6:52 PM 66.0 °F 57.9 °F 75% 29.74 in 10.0 mi SE 10.4 mph - N/A   Overcast
7:52 PM 66.0 °F 57.9 °F 75% 29.75 in 10.0 mi SSE 12.7 mph 19.6 mph N/A   Overcast
8:52 PM 64.9 °F 57.0 °F 75% 29.76 in 10.0 mi SE 11.5 mph - N/A   Overcast
10:52 PM 66.9 °F 57.0 °F 70% 29.76 in 10.0 mi SE 6.9 mph - N/A   Overcast
11:52 PM 66.9 °F 57.9 °F 73% 29.75 in 10.0 mi SE 11.5 mph - N/A   Overcast